Mountain Home, Arkansas, United States (72653)
Lat: 36.34N, Lon: 92.39W
Wx Zone: ARZ005
Local Info
Past Weather Observations for Thursday, July 24, 2014

NOTE: This archive is for the closest National Weather Service station to Mountain Home. Information may differ from the station used for current weather conditions.

Click here for Long-term Archive

Time Weather Temperature Dewpoint Humidity Pressure Winds Precip Visibility
23:53
Clear
66°F / 19°C 59°F / 15°C 78% 30.04 in
(1017 mb)
SSE 4.6 mph
(SSE 7 kph)
- 10SM
22:53
Clear
66°F / 19°C 61°F / 16°C 83% 30.04 in
(1017 mb)
Calm - 10SM
21:53
Clear
66°F / 19°C 61°F / 16°C 83% 30.06 in
(1018 mb)
Calm - 10SM
20:53
Clear
70°F / 21°C 61°F / 16°C 73% 30.06 in
(1018 mb)
Calm - 10SM
19:53
Clear
70°F / 21°C 61°F / 16°C 73% 30.04 in
(1017 mb)
Calm - 10SM
18:53
Clear
75°F / 24°C 61°F / 16°C 61% 30.04 in
(1017 mb)
ESE 3.5 mph
(ESE 6 kph)
- 10SM
17:53
Clear
81°F / 27°C 61°F / 16°C 51% 30.04 in
(1017 mb)
Calm - 10SM
16:53
Clear
81°F / 27°C 57°F / 14°C 45% 30.04 in
(1017 mb)
SE 4.6 mph
(SE 7 kph)
- 10SM
15:53
Clear
81°F / 27°C 59°F / 15°C 48% 30.06 in
(1018 mb)
E 5.8 mph
(E 9 kph)
- 10SM
14:53
Clear
81°F / 27°C 59°F / 15°C 48% 30.06 in
(1018 mb)
ENE 8.1 mph
(ENE 13 kph)
- 10SM
13:53
Clear
81°F / 27°C 59°F / 15°C 48% 30.09 in
(1019 mb)
Variable 3.5 mph
(Variable 6 kph)
- 10SM
12:53
Clear
79°F / 26°C 61°F / 16°C 54% 30.09 in
(1019 mb)
NE 3.5 mph
(NE 6 kph)
- 10SM
11:53
Clear
79°F / 26°C 61°F / 16°C 54% 30.12 in
(1020 mb)
Variable 4.6 mph
(Variable 7 kph)
- 10SM
10:53
Clear
75°F / 24°C 57°F / 14°C 54% 30.12 in
(1020 mb)
NE 4.6 mph
(NE 7 kph)
- 10SM
09:53
Clear
75°F / 24°C 57°F / 14°C 54% 30.15 in
(1021 mb)
NE 5.8 mph
(NE 9 kph)
- 10SM
08:53
Partly Cloudy
72°F / 22°C 57°F / 14°C 61% 30.15 in
(1021 mb)
E 10.4 mph
(E 17 kph)
- 10SM
07:53
Mostly Cloudy
70°F / 21°C 63°F / 17°C 78% 30.15 in
(1021 mb)
E 3.5 mph
(E 6 kph)
- 10SM
06:53
Mostly Cloudy
70°F / 21°C 63°F / 17°C 78% 30.12 in
(1020 mb)
E 3.5 mph
(E 6 kph)
- 10SM
05:53
Overcast
68°F / 20°C 66°F / 19°C 94% 30.09 in
(1019 mb)
E 5.8 mph
(E 9 kph)
- 9SM
04:53
Overcast
68°F / 20°C 66°F / 19°C 94% 30.09 in
(1019 mb)
ENE 4.6 mph
(ENE 7 kph)
- 9SM
04:16
Overcast
68°F / 20°C 66°F / 19°C 94% 30.06 in
(1018 mb)
NE 3.5 mph
(NE 6 kph)
- 8SM
04:06
Overcast
68°F / 20°C 66°F / 19°C 94% 30.06 in
(1018 mb)
ENE 3.5 mph
(ENE 6 kph)
- 8SM
03:53
Overcast
68°F / 20°C 66°F / 19°C 94% 30.06 in
(1018 mb)
NE 3.5 mph
(NE 6 kph)
- 8SM
03:48
Mostly Cloudy
66°F / 19°C 66°F / 19°C 100% 30.06 in
(1018 mb)
NE 3.5 mph
(NE 6 kph)
- 8SM
03:16
Mostly Cloudy
66°F / 19°C 66°F / 19°C 100% 30.06 in
(1018 mb)
NE 3.5 mph
(NE 6 kph)
- 8SM
02:53
Clear
66°F / 19°C 66°F / 19°C 100% 30.06 in
(1018 mb)
Calm - 8SM
02:00
Partly Cloudy
Fog And Mist
66°F / 19°C 66°F / 19°C 100% 30.06 in
(1018 mb)
Calm - 5SM
01:53
Mostly Cloudy
Fog And Mist
66°F / 19°C 66°F / 19°C 100% 30.06 in
(1018 mb)
Calm - 2SM
01:35
Mostly Cloudy
Fog And Mist
66°F / 19°C 66°F / 19°C 100% 30.06 in
(1018 mb)
Calm - 1 3/4SM
01:22
Mostly Cloudy
Fog And Mist
66°F / 19°C 66°F / 19°C 100% 30.06 in
(1018 mb)
Calm - 3SM
01:13
Overcast
Fog And Mist
66°F / 19°C 66°F / 19°C 100% 30.06 in
(1018 mb)
Calm - 1 3/4SM
01:01
Mostly Cloudy
Fog And Mist
66°F / 19°C 66°F / 19°C 100% 30.06 in
(1018 mb)
Calm - 5SM
00:53
Partly Cloudy
Fog And Mist
66°F / 19°C 66°F / 19°C 100% 30.06 in
(1018 mb)
Calm - 4SM
00:45
Partly Cloudy
Fog And Mist
66°F / 19°C 66°F / 19°C 100% 30.06 in
(1018 mb)
Calm - 5SM
Time Weather Temperature Dewpoint Humidity Pressure Winds Precip Visibility


Weather for websites

WeatherForYou.com, LLC is not responsible for any damages or problems caused by this service. Current weather conditions are obtained from the closest station including government and personal stations which may have varying degrees of accuracy. Weather forecasts are derived from the NOAA NDFD. Like all things, this site belongs to Jesus Christ... He just trusts me to maintain it. If you have any questions or comments email webmaster@weatherforyou.com

Copyright © 2014, WeatherForYou.com LLC. All rights reserved.